TimeMDT,TemperatureF,Dew PointF,Humidity,Sea Level PressureIn,VisibilityMPH,Wind Direction,Wind SpeedMPH,Gust SpeedMPH,PrecipitationIn,Events,Conditions,WindDirDegrees,DateUTC
12:55 AM,28.0,12.2,52,30.17,10.0,NNW,28.8,42.6,N/A,,Clear,330,2013-03-12 06:55:00
1:55 AM,27.1,12.2,53,30.18,10.0,NW,28.8,38.0,N/A,,Clear,320,2013-03-12 07:55:00
2:55 AM,25.5,10.2,52,30.21,10.0,NW,23.0,28.8,N/A,,Clear,320,2013-03-12 08:55:00
3:55 AM,25.0,6.1,45,30.22,10.0,NW,24.2,32.2,N/A,,Clear,320,2013-03-12 09:55:00
4:55 AM,24.4,7.2,48,30.22,10.0,NW,28.8,36.8,N/A,,Clear,320,2013-03-12 10:55:00
5:55 AM,23.9,6.6,48,30.27,10.0,NNW,25.3,-,N/A,,Clear,330,2013-03-12 11:55:00
6:55 AM,23.4,5.2,46,30.29,10.0,NNW,21.9,29.9,N/A,,Clear,330,2013-03-12 12:55:00
7:55 AM,24.1,3.7,42,30.32,10.0,NNW,21.9,26.5,N/A,,Clear,330,2013-03-12 13:55:00
8:55 AM,27.5,3.6,36,30.33,10.0,NNW,26.5,35.7,N/A,,Clear,330,2013-03-12 14:55:00
9:55 AM,30.2,3.0,32,30.33,10.0,NNW,28.8,38.0,N/A,,Clear,330,2013-03-12 15:55:00
10:55 AM,32.9,3.4,29,30.34,10.0,NNW,28.8,36.8,N/A,,Clear,330,2013-03-12 16:55:00
11:55 AM,34.7,4.3,28,30.35,10.0,NNW,23.0,34.5,N/A,,Clear,340,2013-03-12 17:55:00
12:55 PM,37.2,5.0,26,30.34,10.0,NNW,20.7,34.5,N/A,,Clear,330,2013-03-12 18:55:00
1:55 PM,38.7,5.0,25,30.32,10.0,NNW,18.4,24.2,N/A,,Clear,330,2013-03-12 19:55:00
2:55 PM,39.9,4.6,23,30.30,10.0,NW,15.0,27.6,N/A,,Clear,320,2013-03-12 20:55:00
3:55 PM,40.1,3.7,22,30.29,10.0,NNW,12.7,-,N/A,,Clear,340,2013-03-12 21:55:00
4:55 PM,40.3,3.4,22,30.27,10.0,North,17.3,-,N/A,,Clear,350,2013-03-12 22:55:00
5:55 PM,38.8,3.2,23,30.27,10.0,North,15.0,-,N/A,,Clear,10,2013-03-12 23:55:00
6:55 PM,35.4,2.1,25,30.30,10.0,ENE,4.6,-,N/A,,Clear,60,2013-03-13 00:55:00
7:55 PM,31.3,1.9,29,30.32,10.0,ESE,3.5,-,N/A,,Clear,120,2013-03-13 01:55:00
8:55 PM,29.5,1.9,31,30.31,10.0,ESE,4.6,-,N/A,,Clear,120,2013-03-13 02:55:00
9:55 PM,25.3,2.5,37,30.31,10.0,Calm,Calm,-,N/A,,Clear,0,2013-03-13 03:55:00
10:55 PM,25.7,2.5,37,30.30,10.0,South,4.6,-,N/A,,Scattered Clouds,170,2013-03-13 04:55:00
11:55 PM,24.6,2.5,39,30.28,10.0,SSE,9.2,-,N/A,,Mostly Cloudy,150,2013-03-13 05:55:00